Time,TemperatureF,DewpointF,PressureIn,WindDirection,WindDirectionDegrees,WindSpeedMPH,WindSpeedGustMPH,Humidity,HourlyPrecipIn,Conditions,Clouds,dailyrainin,SoftwareType,DateUTC
2013-03-07 00:10:00,34.1,26.0,30.12,North,5,0.0,7.0,71,0.00,,,0.00,weatherlink.com 1.10,2013-03-07 05:10:00,
2013-03-07 00:25:00,33.9,25.0,30.12,North,355,0.0,1.0,71,0.00,,,0.00,weatherlink.com 1.10,2013-03-07 05:25:00,
2013-03-07 00:40:00,33.9,25.0,30.12,WNW,299,3.0,4.0,71,0.00,,,0.00,weatherlink.com 1.10,2013-03-07 05:40:00,
2013-03-07 00:55:00,33.8,26.0,30.13,SW,222,0.0,3.0,74,0.00,,,0.00,weatherlink.com 1.10,2013-03-07 05:55:00,
2013-03-07 01:10:00,33.7,25.0,30.13,NE,35,0.0,5.0,71,0.00,,,0.00,weatherlink.com 1.10,2013-03-07 06:10:00,
2013-03-07 01:25:00,33.8,25.0,30.13,North,11,0.0,1.0,71,0.00,,,0.00,weatherlink.com 1.10,2013-03-07 06:25:00,
2013-03-07 01:40:00,33.7,25.0,30.13,NNE,15,0.0,3.0,71,0.00,,,0.00,weatherlink.com 1.10,2013-03-07 06:40:00,
2013-03-07 01:55:00,33.5,25.0,30.12,NW,323,0.0,1.0,72,0.00,,,0.00,weatherlink.com 1.10,2013-03-07 06:55:00,
2013-03-07 02:10:00,33.4,26.0,30.12,NNW,327,0.0,3.0,73,0.00,,,0.00,weatherlink.com 1.10,2013-03-07 07:10:00,
2013-03-07 02:25:00,33.3,26.0,30.12,NW,313,0.0,3.0,73,0.00,,,0.00,weatherlink.com 1.10,2013-03-07 07:25:00,
2013-03-07 02:40:00,33.4,26.0,30.11,North,5,0.0,3.0,74,0.00,,,0.00,weatherlink.com 1.10,2013-03-07 07:40:00,
2013-03-07 02:55:00,33.3,26.0,30.11,NNW,342,0.0,5.0,74,0.00,,,0.00,weatherlink.com 1.10,2013-03-07 07:55:00,
2013-03-07 03:10:00,33.2,26.0,30.11,ENE,57,0.0,3.0,75,0.00,,,0.00,weatherlink.com 1.10,2013-03-07 08:10:00,
2013-03-07 03:25:00,33.2,26.0,30.11,North,355,2.0,4.0,74,0.00,,,0.00,weatherlink.com 1.10,2013-03-07 08:25:00,
2013-03-07 03:40:00,33.1,26.0,30.11,NNE,33,0.0,3.0,75,0.00,,,0.00,weatherlink.com 1.10,2013-03-07 08:40:00,
2013-03-07 03:55:00,33.0,26.0,30.11,NNW,336,0.0,6.0,74,0.00,,,0.00,weatherlink.com 1.10,2013-03-07 08:55:00,
2013-03-07 04:10:00,33.0,26.0,30.11,NW,323,0.0,7.0,75,0.00,,,0.00,weatherlink.com 1.10,2013-03-07 09:10:00,
2013-03-07 04:40:00,33.0,26.0,30.11,NW,324,2.0,5.0,74,0.00,,,0.00,weatherlink.com 1.10,2013-03-07 09:40:00,
2013-03-07 04:55:00,33.0,25.0,30.11,NNE,13,1.0,7.0,73,0.00,,,0.00,weatherlink.com 1.10,2013-03-07 09:55:00,
2013-03-07 05:10:00,33.0,25.0,30.11,NNW,327,0.0,8.0,72,0.00,,,0.00,weatherlink.com 1.10,2013-03-07 10:10:00,
2013-03-07 05:25:00,33.0,25.0,30.12,NNE,26,1.0,7.0,72,0.00,,,0.00,weatherlink.com 1.10,2013-03-07 10:25:00,
2013-03-07 05:40:00,32.8,25.0,30.12,NW,324,1.0,4.0,74,0.00,,,0.00,weatherlink.com 1.10,2013-03-07 10:40:00,
2013-03-07 05:55:00,32.8,25.0,30.13,SSE,165,0.0,5.0,73,0.00,,,0.00,weatherlink.com 1.10,2013-03-07 10:55:00,
2013-03-07 06:10:00,32.8,24.0,30.13,NW,311,2.0,5.0,71,0.00,,,0.00,weatherlink.com 1.10,2013-03-07 11:10:00,
2013-03-07 06:25:00,32.7,25.0,30.14,NNE,18,0.0,4.0,72,0.00,,,0.00,weatherlink.com 1.10,2013-03-07 11:25:00,
2013-03-07 06:40:00,32.6,24.0,30.14,NE,35,0.0,6.0,71,0.00,,,0.00,weatherlink.com 1.10,2013-03-07 11:40:00,
2013-03-07 06:55:00,32.7,24.0,30.14,NNE,26,0.0,5.0,71,0.00,,,0.00,weatherlink.com 1.10,2013-03-07 11:55:00,
2013-03-07 07:10:00,32.8,24.0,30.14,NNW,340,0.0,5.0,70,0.00,,,0.00,weatherlink.com 1.10,2013-03-07 12:10:00,
2013-03-07 07:25:00,32.8,24.0,30.14,NNW,336,0.0,4.0,71,0.00,,,0.00,weatherlink.com 1.10,2013-03-07 12:25:00,
2013-03-07 07:40:00,32.9,25.0,30.14,WSW,253,0.0,5.0,73,0.00,,,0.00,weatherlink.com 1.10,2013-03-07 12:40:00,
2013-03-07 07:55:00,33.3,24.0,30.14,South,187,2.0,8.0,70,0.00,,,0.00,weatherlink.com 1.10,2013-03-07 12:55:00,
2013-03-07 08:10:00,33.6,24.0,30.15,NNE,30,1.0,3.0,69,0.00,,,0.00,weatherlink.com 1.10,2013-03-07 13:10:00,
2013-03-07 08:25:00,33.8,25.0,30.15,SSE,160,2.0,8.0,69,0.00,,,0.00,weatherlink.com 1.10,2013-03-07 13:25:00,
2013-03-07 08:40:00,34.2,25.0,30.15,NNE,15,2.0,4.0,68,0.00,,,0.00,weatherlink.com 1.10,2013-03-07 13:40:00,
2013-03-07 08:56:00,34.4,25.0,30.15,ENE,71,0.0,7.0,68,0.00,,,0.00,weatherlink.com 1.10,2013-03-07 13:56:00,
2013-03-07 09:10:00,34.4,24.0,30.15,ENE,62,3.0,7.0,67,0.00,,,0.00,weatherlink.com 1.10,2013-03-07 14:10:00,
2013-03-07 09:26:00,35.0,25.0,30.14,North,9,0.0,7.0,67,0.00,,,0.00,weatherlink.com 1.10,2013-03-07 14:26:00,
2013-03-07 09:41:00,35.4,24.0,30.14,NNE,17,1.0,9.0,64,0.00,,,0.00,weatherlink.com 1.10,2013-03-07 14:41:00,
2013-03-07 09:56:00,35.5,24.0,30.14,NE,40,6.0,8.0,64,0.00,,,0.00,weatherlink.com 1.10,2013-03-07 14:56:00,
2013-03-07 10:11:00,36.0,24.0,30.14,NE,34,7.0,7.0,63,0.00,,,0.00,weatherlink.com 1.10,2013-03-07 15:11:00,
2013-03-07 10:26:00,36.2,24.0,30.14,NNW,328,0.0,8.0,61,0.00,,,0.00,weatherlink.com 1.10,2013-03-07 15:26:00,
2013-03-07 10:41:00,36.6,24.0,30.14,NNW,342,4.0,6.0,61,0.00,,,0.00,weatherlink.com 1.10,2013-03-07 15:41:00,
2013-03-07 10:56:00,36.6,25.0,30.14,SSE,155,3.0,6.0,62,0.00,,,0.00,weatherlink.com 1.10,2013-03-07 15:56:00,
2013-03-07 11:11:00,36.8,25.0,30.14,ENE,63,1.0,8.0,63,0.00,,,0.00,weatherlink.com 1.10,2013-03-07 16:11:00,
2013-03-07 11:26:00,35.9,25.0,30.14,NE,53,4.0,10.0,65,0.00,,,0.00,weatherlink.com 1.10,2013-03-07 16:26:00,
2013-03-07 11:41:00,36.0,25.0,30.14,NNE,22,6.0,8.0,65,0.00,,,0.00,weatherlink.com 1.10,2013-03-07 16:41:00,
2013-03-07 11:56:00,36.6,26.0,30.14,North,355,2.0,6.0,66,0.00,,,0.00,weatherlink.com 1.10,2013-03-07 16:56:00,
2013-03-07 12:11:00,36.5,26.0,30.14,NNE,19,1.0,9.0,67,0.00,,,0.00,weatherlink.com 1.10,2013-03-07 17:11:00,
2013-03-07 12:26:00,36.5,27.0,30.14,WSW,246,2.0,9.0,68,0.00,,,0.00,weatherlink.com 1.10,2013-03-07 17:26:00,
2013-03-07 12:41:00,36.6,28.0,30.13,NNW,344,2.0,6.0,72,0.00,,,0.00,weatherlink.com 1.10,2013-03-07 17:41:00,
2013-03-07 12:56:00,36.2,28.0,30.12,NNW,334,4.0,5.0,73,0.00,,,0.00,weatherlink.com 1.10,2013-03-07 17:56:00,
2013-03-07 13:11:00,36.1,29.0,30.12,NE,54,1.0,5.0,75,0.00,,,0.00,weatherlink.com 1.10,2013-03-07 18:11:00,
2013-03-07 13:26:00,35.9,30.0,30.12,NNE,18,5.0,7.0,79,0.00,,,0.00,weatherlink.com 1.10,2013-03-07 18:26:00,
2013-03-07 13:41:00,35.3,30.0,30.12,WNW,293,3.0,5.0,81,0.00,,,0.00,weatherlink.com 1.10,2013-03-07 18:41:00,
2013-03-07 13:56:00,35.0,30.0,30.12,South,190,2.0,6.0,82,0.00,,,0.00,weatherlink.com 1.10,2013-03-07 18:56:00,
2013-03-07 14:11:00,35.0,31.0,30.13,WNW,297,1.0,4.0,84,0.00,,,0.00,weatherlink.com 1.10,2013-03-07 19:11:00,
2013-03-07 14:26:00,35.3,30.0,30.13,NNE,16,2.0,5.0,82,0.00,,,0.00,weatherlink.com 1.10,2013-03-07 19:26:00,
2013-03-07 14:41:00,35.0,30.0,30.14,North,5,0.0,7.0,83,0.00,,,0.00,weatherlink.com 1.10,2013-03-07 19:41:00,
2013-03-07 14:56:00,34.9,31.0,30.14,NNW,344,0.0,4.0,85,0.00,,,0.00,weatherlink.com 1.10,2013-03-07 19:56:00,
2013-03-07 15:11:00,34.7,31.0,30.14,ESE,119,0.0,2.0,86,0.00,,,0.00,weatherlink.com 1.10,2013-03-07 20:11:00,
2013-03-07 15:26:00,34.3,31.0,30.14,ESE,119,0.0,8.0,86,0.00,,,0.00,weatherlink.com 1.10,2013-03-07 20:26:00,
2013-03-07 15:41:00,33.8,31.0,30.14,NNE,17,0.0,5.0,88,0.00,,,0.00,weatherlink.com 1.10,2013-03-07 20:41:00,
2013-03-07 15:56:00,33.5,31.0,30.15,NNE,24,1.0,3.0,91,0.00,,,0.00,weatherlink.com 1.10,2013-03-07 20:56:00,
2013-03-07 16:11:00,33.3,31.0,30.15,NW,324,0.0,4.0,92,0.00,,,0.00,weatherlink.com 1.10,2013-03-07 21:11:00,
2013-03-07 16:26:00,33.0,31.0,30.15,NE,38,3.0,3.0,93,0.00,,,0.00,weatherlink.com 1.10,2013-03-07 21:26:00,
2013-03-07 16:41:00,32.6,31.0,30.15,NNW,329,2.0,4.0,93,0.00,,,0.00,weatherlink.com 1.10,2013-03-07 21:41:00,
2013-03-07 16:56:00,32.4,31.0,30.16,NNE,31,0.0,1.0,94,0.00,,,0.00,weatherlink.com 1.10,2013-03-07 21:56:00,
2013-03-07 17:11:00,32.4,31.0,30.16,WNW,298,0.0,1.0,94,0.00,,,0.00,weatherlink.com 1.10,2013-03-07 22:11:00,
2013-03-07 17:26:00,32.3,31.0,30.16,WNW,302,0.0,1.0,94,0.00,,,0.00,weatherlink.com 1.10,2013-03-07 22:26:00,
2013-03-07 17:41:00,32.3,31.0,30.16,NW,305,0.0,1.0,95,0.00,,,0.00,weatherlink.com 1.10,2013-03-07 22:41:00,
2013-03-07 17:56:00,32.2,31.0,30.16,NW,305,0.0,0.0,95,0.00,,,0.00,weatherlink.com 1.10,2013-03-07 22:56:00,
2013-03-07 18:11:00,32.1,31.0,30.17,NW,305,0.0,0.0,95,0.00,,,0.00,weatherlink.com 1.10,2013-03-07 23:11:00,
2013-03-07 18:26:00,32.0,31.0,30.17,WNW,300,0.0,0.0,96,0.00,,,0.00,weatherlink.com 1.10,2013-03-07 23:26:00,
2013-03-07 18:41:00,32.0,31.0,30.17,NNW,347,0.0,1.0,96,0.00,,,0.00,weatherlink.com 1.10,2013-03-07 23:41:00,
2013-03-07 18:56:00,31.9,31.0,30.18,NNW,347,0.0,1.0,96,0.00,,,0.00,weatherlink.com 1.10,2013-03-07 23:56:00,
2013-03-07 19:11:00,31.8,31.0,30.17,NNW,347,0.0,1.0,96,0.00,,,0.00,weatherlink.com 1.10,2013-03-08 00:11:00,
2013-03-07 19:26:00,31.8,31.0,30.17,NNW,341,0.0,2.0,96,0.00,,,0.00,weatherlink.com 1.10,2013-03-08 00:26:00,
2013-03-07 19:41:00,31.7,31.0,30.17,NE,38,0.0,2.0,96,0.00,,,0.00,weatherlink.com 1.10,2013-03-08 00:41:00,
2013-03-07 19:56:00,31.5,31.0,30.17,NE,35,0.0,3.0,96,0.00,,,0.00,weatherlink.com 1.10,2013-03-08 00:56:00,
2013-03-07 20:11:00,31.4,30.0,30.16,NE,41,0.0,4.0,96,0.00,,,0.00,weatherlink.com 1.10,2013-03-08 01:11:00,
2013-03-07 20:25:00,31.1,30.0,30.16,NNE,33,0.0,2.0,96,0.00,,,0.00,weatherlink.com 1.10,2013-03-08 01:25:00,
2013-03-07 20:40:00,30.9,30.0,30.16,NNW,327,0.0,3.0,96,0.00,,,0.00,weatherlink.com 1.10,2013-03-08 01:40:00,
2013-03-07 20:55:00,30.7,30.0,30.16,NE,40,0.0,0.0,96,0.00,,,0.00,weatherlink.com 1.10,2013-03-08 01:55:00,
2013-03-07 21:10:00,30.7,30.0,30.16,North,5,0.0,0.0,96,0.00,,,0.00,weatherlink.com 1.10,2013-03-08 02:10:00,
2013-03-07 21:26:00,30.6,30.0,30.16,NNW,344,0.0,0.0,96,0.00,,,0.00,weatherlink.com 1.10,2013-03-08 02:26:00,
2013-03-07 21:40:00,30.6,30.0,30.15,NNW,344,0.0,0.0,96,0.00,,,0.00,weatherlink.com 1.10,2013-03-08 02:40:00,
2013-03-07 21:55:00,30.6,30.0,30.15,NNW,344,0.0,0.0,96,0.00,,,0.00,weatherlink.com 1.10,2013-03-08 02:55:00,
2013-03-07 22:10:00,30.6,30.0,30.15,NNW,344,0.0,0.0,96,0.00,,,0.00,weatherlink.com 1.10,2013-03-08 03:10:00,
2013-03-07 22:26:00,30.6,30.0,30.14,NNW,344,0.0,0.0,96,0.00,,,0.00,weatherlink.com 1.10,2013-03-08 03:26:00,
2013-03-07 22:41:00,30.5,30.0,30.14,NNW,346,0.0,0.0,96,0.00,,,0.00,weatherlink.com 1.10,2013-03-08 03:41:00,
2013-03-07 22:56:00,30.5,30.0,30.14,NNW,347,0.0,0.0,96,0.00,,,0.00,weatherlink.com 1.10,2013-03-08 03:56:00,
2013-03-07 23:11:00,30.3,29.0,30.14,North,355,0.0,0.0,96,0.00,,,0.00,weatherlink.com 1.10,2013-03-08 04:11:00,
2013-03-07 23:26:00,30.3,29.0,30.14,North,355,0.0,0.0,96,0.00,,,0.00,weatherlink.com 1.10,2013-03-08 04:26:00,
2013-03-07 23:41:00,30.3,29.0,30.14,NNE,23,0.0,0.0,96,0.00,,,0.00,weatherlink.com 1.10,2013-03-08 04:41:00,
2013-03-07 23:56:00,30.2,29.0,30.14,NNE,24,0.0,0.0,96,0.00,,,0.00,weatherlink.com 1.10,2013-03-08 04:56:00,